• In Deutschland
  • Länderverzeichnis
  • Für 7 Tage
  • Wassertemperatur
  • Satellitenkarten
  • Wetterkarte
  • Widgets
  • user-avatar
    Anmelden

    Stündliche Wetter Gjirokaster

    Heute, 16 Juli, Montag

    Zeit Temperatur Niederschläge Wind Luftdruck Luftfeuchtigkeit
    00:00 +16°C° 0 mm 2 m/S 652 mmHg 56%
    01:00 +16°C° 0 mm 2 m/S 652 mmHg 53%
    02:00 +16°C° 0 mm 2 m/S 652 mmHg 53%
    03:00 +16°C° 0 mm 2 m/S 652 mmHg 53%
    04:00 +15°C° 0 mm 2 m/S 652 mmHg 54%
    05:00 +17°C° 0 mm 2 m/S 652 mmHg 53%
    06:00 +19°C° 0 mm 2 m/S 653 mmHg 53%
    07:00 +21°C° 0 mm 1 m/S 653 mmHg 52%
    08:00 +23°C° 0 mm 2 m/S 653 mmHg 48%
    09:00 +24°C° 0 mm 2 m/S 654 mmHg 43%
    10:00 +26°C° 0 mm 3 m/S 654 mmHg 39%
    11:00 +26°C° 0 mm 3 m/S 654 mmHg 38%
    12:00 +27°C° 0 mm 4 m/S 654 mmHg 38%
    13:00 +26°C° 0 mm 4 m/S 654 mmHg 39%
    14:00 +26°C° 0 mm 4 m/S 654 mmHg 40%
    15:00 +26°C° 0 mm 4 m/S 654 mmHg 41%
    16:00 +26°C° 0 mm 3 m/S 654 mmHg 42%
    17:00 +24°C° 0 mm 3 m/S 653 mmHg 48%
    18:00 +21°C° 0 mm 2 m/S 653 mmHg 54%
    19:00 +20°C° 0 mm 1 m/S 652 mmHg 61%
    20:00 +20°C° 0 mm 1 m/S 652 mmHg 62%
    21:00 +19°C° 0 mm 1 m/S 652 mmHg 63%
    22:00 +18°C° 0 mm 1 m/S 652 mmHg 63%
    23:00 +18°C° 0 mm 1 m/S 652 mmHg 63%

    Morgen, 17 Juli, Dienstag

    Zeit Temperatur Niederschläge Wind Luftdruck Luftfeuchtigkeit
    00:00 +18°C° 0 mm 1 m/S 651 mmHg 62%
    01:00 +16°C° 0 mm 1 m/S 651 mmHg 62%
    02:00 +16°C° 0 mm 2 m/S 651 mmHg 61%
    03:00 +16°C° 0 mm 2 m/S 651 mmHg 61%
    04:00 +16°C° 0 mm 2 m/S 650 mmHg 61%
    05:00 +17°C° 0 mm 3 m/S 650 mmHg 59%
    06:00 +19°C° 0 mm 4 m/S 650 mmHg 58%
    07:00 +20°C° 0 mm 4 m/S 650 mmHg 57%
    08:00 +21°C° 0 mm 5 m/S 651 mmHg 54%
    09:00 +22°C° 0 mm 5 m/S 651 mmHg 52%
    10:00 +25°C° 0 mm 5 m/S 651 mmHg 49%
    11:00 +25°C° 0 mm 5 m/S 650 mmHg 50%
    12:00 +25°C° 0 mm 4 m/S 650 mmHg 50%
    13:00 +25°C° 0 mm 4 m/S 650 mmHg 51%
    14:00 +23°C° 0 mm 4 m/S 650 mmHg 53%
    15:00 +23°C° 0 mm 4 m/S 650 mmHg 55%
    16:00 +22°C° 0 mm 3 m/S 650 mmHg 56%
    17:00 +21°C° 0,1 mm 3 m/S 649 mmHg 64%
    18:00 +19°C° 0,1 mm 3 m/S 649 mmHg 72%
    19:00 +18°C° 0,1 mm 3 m/S 649 mmHg 79%
    20:00 +17°C° 0 mm 3 m/S 649 mmHg 83%
    21:00 +16°C° 0 mm 3 m/S 649 mmHg 87%
    22:00 +14°C° 0 mm 3 m/S 649 mmHg 90%
    23:00 +14°C° 0 mm 3 m/S 649 mmHg 90%

    übermorgen, 18 Juli, Mittwoch

    Zeit Temperatur Niederschläge Wind Luftdruck Luftfeuchtigkeit
    00:00 +13°C° 0 mm 3 m/S 649 mmHg 90%
    01:00 +13°C° 0 mm 3 m/S 649 mmHg 90%
    02:00 +12°C° 0 mm 3 m/S 649 mmHg 89%
    03:00 +12°C° 0 mm 3 m/S 649 mmHg 88%
    04:00 +12°C° 0 mm 3 m/S 649 mmHg 88%
    05:00 +13°C° 0 mm 3 m/S 649 mmHg 82%
    06:00 +16°C° 0 mm 3 m/S 650 mmHg 76%
    07:00 +17°C° 0 mm 3 m/S 650 mmHg 70%
    08:00 +19°C° 0 mm 3 m/S 651 mmHg 63%
    09:00 +21°C° 0 mm 4 m/S 651 mmHg 56%
    10:00 +22°C° 0 mm 4 m/S 651 mmHg 49%
    11:00 +23°C° 0 mm 4 m/S 651 mmHg 47%
    12:00 +25°C° 0 mm 5 m/S 651 mmHg 45%
    13:00 +25°C° 0 mm 5 m/S 651 mmHg 43%
    14:00 +24°C° 0 mm 6 m/S 651 mmHg 44%
    15:00 +23°C° 0 mm 6 m/S 651 mmHg 46%
    16:00 +23°C° 0 mm 6 m/S 651 mmHg 47%
    17:00 +21°C° 0 mm 6 m/S 651 mmHg 54%
    18:00 +19°C° 0 mm 5 m/S 650 mmHg 61%
    19:00 +17°C° 0 mm 4 m/S 650 mmHg 68%
    20:00 +15°C° 0 mm 4 m/S 650 mmHg 70%
    21:00 +14°C° 0 mm 3 m/S 650 mmHg 73%
    22:00 +13°C° 0 mm 3 m/S 650 mmHg 75%
    23:00 +13°C° 0 mm 3 m/S 650 mmHg 76%

    19 Juli, Donnerstag

    Zeit Temperatur Niederschläge Wind Luftdruck Luftfeuchtigkeit
    00:00 +13°C° 0 mm 3 m/S 650 mmHg 77%
    01:00 +12°C° 0 mm 3 m/S 650 mmHg 77%
    02:00 +13°C° 0 mm 2 m/S 650 mmHg 77%
    03:00 +13°C° 0 mm 2 m/S 650 mmHg 76%
    04:00 +13°C° 0 mm 2 m/S 649 mmHg 76%
    05:00 +15°C° 0 mm 2 m/S 650 mmHg 70%
    06:00 +16°C° 0 mm 3 m/S 650 mmHg 65%
    07:00 +18°C° 0 mm 3 m/S 651 mmHg 59%
    08:00 +19°C° 0 mm 3 m/S 651 mmHg 54%
    09:00 +21°C° 0 mm 4 m/S 652 mmHg 49%
    10:00 +22°C° 0 mm 5 m/S 652 mmHg 44%
    11:00 +23°C° 0 mm 5 m/S 652 mmHg 43%
    12:00 +23°C° 0 mm 5 m/S 652 mmHg 42%
    13:00 +24°C° 0 mm 6 m/S 652 mmHg 42%
    14:00 +24°C° 0 mm 6 m/S 652 mmHg 44%
    15:00 +23°C° 0 mm 6 m/S 652 mmHg 45%
    16:00 +23°C° 0 mm 6 m/S 652 mmHg 47%
    17:00 +21°C° 0 mm 5 m/S 651 mmHg 54%
    18:00 +19°C° 0 mm 4 m/S 651 mmHg 61%
    19:00 +18°C° 0 mm 4 m/S 651 mmHg 68%
    20:00 +17°C° 0 mm 4 m/S 651 mmHg 70%
    21:00 +16°C° 0 mm 3 m/S 651 mmHg 72%
    22:00 +14°C° 0 mm 3 m/S 651 mmHg 75%
    23:00 +14°C° 0 mm 3 m/S 651 mmHg 75%

    20 Juli, Freitag

    Zeit Temperatur Niederschläge Wind Luftdruck Luftfeuchtigkeit
    00:00 +14°C° 0 mm 3 m/S 651 mmHg 76%
    01:00 +15°C° 0 mm 2 m/S 651 mmHg 77%
    02:00 +14°C° 0 mm 2 m/S 651 mmHg 77%
    03:00 +14°C° 0 mm 2 m/S 650 mmHg 78%
    04:00 +14°C° 0 mm 2 m/S 650 mmHg 78%
    05:00 +16°C° 0 mm 2 m/S 651 mmHg 73%
    06:00 +17°C° 0 mm 2 m/S 651 mmHg 68%
    07:00 +19°C° 0 mm 2 m/S 652 mmHg 64%
    08:00 +21°C° 0 mm 2 m/S 652 mmHg 56%
    09:00 +23°C° 0 mm 2 m/S 653 mmHg 48%
    10:00 +25°C° 0 mm 3 m/S 653 mmHg 40%
    11:00 +25°C° 0 mm 3 m/S 653 mmHg 38%
    12:00 +26°C° 0 mm 4 m/S 653 mmHg 36%
    13:00 +27°C° 0 mm 4 m/S 653 mmHg 34%
    14:00 +26°C° 0 mm 5 m/S 653 mmHg 35%
    15:00 +26°C° 0 mm 5 m/S 653 mmHg 37%
    16:00 +26°C° 0 mm 5 m/S 653 mmHg 38%
    17:00 +23°C° 0 mm 4 m/S 652 mmHg 45%
    18:00 +21°C° 0 mm 4 m/S 652 mmHg 52%
    19:00 +18°C° 0 mm 3 m/S 652 mmHg 58%
    20:00 +18°C° 0 mm 3 m/S 652 mmHg 59%
    21:00 +17°C° 0 mm 3 m/S 652 mmHg 60%
    22:00 +16°C° 0 mm 2 m/S 652 mmHg 61%
    23:00 +16°C° 0 mm 2 m/S 652 mmHg 61%

    21 Juli, Samstag

    Zeit Temperatur Niederschläge Wind Luftdruck Luftfeuchtigkeit
    00:00 +16°C° 0 mm 2 m/S 652 mmHg 62%
    01:00 +15°C° 0 mm 2 m/S 652 mmHg 62%
    02:00 +15°C° 0 mm 2 m/S 651 mmHg 62%
    03:00 +15°C° 0 mm 2 m/S 651 mmHg 63%
    04:00 +15°C° 0 mm 2 m/S 651 mmHg 63%
    05:00 +17°C° 0 mm 2 m/S 652 mmHg 60%
    06:00 +19°C° 0 mm 1 m/S 652 mmHg 56%
    07:00 +21°C° 0 mm 1 m/S 653 mmHg 52%
    08:00 +23°C° 0 mm 1 m/S 653 mmHg 47%
    09:00 +25°C° 0 mm 2 m/S 654 mmHg 42%
    10:00 +26°C° 0 mm 2 m/S 654 mmHg 37%
    11:00 +27°C° 0 mm 2 m/S 654 mmHg 35%
    12:00 +27°C° 0 mm 3 m/S 654 mmHg 34%
    13:00 +28°C° 0 mm 3 m/S 654 mmHg 32%
    14:00 +28°C° 0 mm 3 m/S 654 mmHg 33%
    15:00 +28°C° 0 mm 3 m/S 653 mmHg 33%
    16:00 +27°C° 0 mm 3 m/S 653 mmHg 34%
    17:00 +25°C° 0 mm 2 m/S 653 mmHg 40%
    18:00 +23°C° 0 mm 2 m/S 652 mmHg 46%
    19:00 +21°C° 0 mm 1 m/S 652 mmHg 52%
    20:00 +20°C° 0 mm 1 m/S 651 mmHg 53%
    21:00 +18°C° 0 mm 2 m/S 651 mmHg 54%
    22:00 +18°C° 0 mm 2 m/S 651 mmHg 55%
    23:00 +17°C° 0 mm 2 m/S 651 mmHg 55%
    Mehr zeigen